Starlink 3898

operational
NORAD ID: 52458 Int'l Des: 2022-049 Owner: SPXS Country: US Constellation: starlink
LEOCIRCULAR

Starlink 3898について

説明を読み込み中...

リアルタイム位置

3D地球を読み込み中...

次回通過

高度履歴

Altitude vs Time

uPlot chart will show altitude changes over time

軌道要素

1 52458U 22049H 25258.35333203 .00000712 00000-0 62795-4 0 9998
2 52458 53.2170 136.2373 0001619 93.8396 266.2782 15.08842320185644
Epoch: Sep 15, 2025 • Age: 21 hours

現在のステータス

高度 541.5 km
速度 7.59 km/s
衛星直下点 -5.28°S, 128.83°W
打ち上げ日 May 6, 2022
運用期間 3.3 years
タイプ internet

技術仕様

分類 Payload
質量 297.00 kg
乾燥質量 220.00 kg
総質量 297.00 kg
長さ 0.20 m
直径 2.80 m
スパン 9.00 m
形状 Box + pan
製造者 SPXS
バスタイプ Starlink
フェーズステータス In Orbit
所有者/国 SPXS/US

大規模コンステレーション

Loading constellations...